Погода в Смоленском

Россия / Новосибирская область     55°11′54″N   83°21′50″E
темп.,
°C
ветер,
м/с
пор.,
м/с
влажн.,
%
обл.,
%
осадки,
мм/ч
давл.,
гПа
погр.,
м
19 апреля, пн
пн1901:00+3юз51096100 2.5 1000594
04:000зюз101586100 1.7 1001977
07:00−7сз101583100 1.9 10101158
10:00−8сз91280100 0.1 10151051
13:00−6сз7865100 0.1 10201373
16:00−5сз6761100 0.0 10221633
19:00−6сз5770100 0.1 10241280
22:00−8сз487990 0.0 1026504
20 апреля, вт
вт2001:00−9сз378362 0.0 1026498
04:00−10сз37875 0.0 1026504
07:00−10зсз478544 0.0 1027631
10:00−7зсз566798 0.0 1028947
13:00−4зсз565749 0.0 10271254
16:00−2зсз464859 0.0 10261534
19:00−2з465117 0.0 10251539
22:00−5з486671 0.0 1026331
21 апреля, ср
ср2101:00−4ююз3767100 0.0 1024459
04:00−3юз4763100 0.0 1023886
07:00−4ююз5968100 0.0 1022929
10:00−2ююз6856100 0.0 10221178
13:000ююз5657100 0.0 10221366
16:00−1ююв3573100 0.2 1023838
19:00−1вюв3481100 0.4 1025550
22:00−2всв368299 0.1 1028293
22 апреля, чт
чт2201:00−2ссв368442 0.2 1030222
04:00−3ссв48905 0.0 1032280
07:00−4ссв49895 0.0 1035337
10:00−1св68645 0.0 10371069
13:00+2св6748100 0.0 10381843
16:00+2ссв5758100 0.1 10391475
19:00+1ссв5771100 0.4 1041946
22:00−1ссв398455 0.1 1043235
23 апреля, пт
пт2301:00−2св39905 0.1 1044257
04:00−3ссв38947 0.0 1044244
07:00−3ссв499317 0.0 1044305
10:00+2св68675 0.0 1044953
13:00+4св685180 0.0 10431574
16:00+5св685198 0.0 10411689
19:00+4св596572 0.0 1041812
22:000ссв513815 0.0 1041341